Data supplied by UK-AIR on 25/3/2022
All Data GMT hour ending 
Status: R =Ratified P=Provisional,P*=As supplied
,,Bush Estate,,,,,,,,,,,,,,,,,,,,,,,
Date,time,"Nitric oxide",status,unit,"Nitrogen dioxide",status,unit,"Nitrogen oxides as nitrogen dioxide",status,unit,"Ozone",status,unit
 
01-01-2021,01:00,0.35004,R,ugm-3,4.72112,R,ugm-3,5.25785,R,ugm-3,56.47194,R,ugm-3
01-01-2021,02:00,0.45006,R,ugm-3,1.71351,R,ugm-3,2.40359,R,ugm-3,57.91833,R,ugm-3
01-01-2021,03:00,0.48756,R,ugm-3,1.50578,R,ugm-3,2.25336,R,ugm-3,57.54101,R,ugm-3
01-01-2021,04:00,0.22503,R,ugm-3,1.00698,R,ugm-3,1.35202,R,ugm-3,57.96549,R,ugm-3
01-01-2021,05:00,0.18752,R,ugm-3,1.34616,R,ugm-3,1.63369,R,ugm-3,56.22040,R,ugm-3
01-01-2021,06:00,0.37505,R,ugm-3,1.11496,R,ugm-3,1.69002,R,ugm-3,54.99411,R,ugm-3
01-01-2021,07:00,0.52507,R,ugm-3,1.27928,R,ugm-3,2.08436,R,ugm-3,53.67350,R,ugm-3
01-01-2021,08:00,0.33754,R,ugm-3,1.90481,R,ugm-3,2.42237,R,ugm-3,49.85316,R,ugm-3
01-01-2021,09:00,0.41255,R,ugm-3,2.69114,R,ugm-3,3.32371,R,ugm-3,47.77790,R,ugm-3
01-01-2021,10:00,0.45006,R,ugm-3,2.07030,R,ugm-3,2.76037,R,ugm-3,50.13614,R,ugm-3
01-01-2021,11:00,0.78760,R,ugm-3,2.96109,R,ugm-3,4.16872,R,ugm-3,50.32480,R,ugm-3
01-01-2021,12:00,0.67508,R,ugm-3,2.28860,R,ugm-3,3.32371,R,ugm-3,52.21139,R,ugm-3
01-01-2021,13:00,0.71259,R,ugm-3,2.51276,R,ugm-3,3.60538,R,ugm-3,53.06036,R,ugm-3
01-01-2021,14:00,0.78760,R,ugm-3,3.86244,R,ugm-3,5.07007,R,ugm-3,51.45676,R,ugm-3
01-01-2021,15:00,0.78760,R,ugm-3,3.97510,R,ugm-3,5.18274,R,ugm-3,49.71166,R,ugm-3
01-01-2021,16:00,0.41255,R,ugm-3,3.31082,R,ugm-3,3.94339,R,ugm-3,52.30572,R,ugm-3
01-01-2021,17:00,0.22503,R,ugm-3,2.47167,R,ugm-3,2.81671,R,ugm-3,54.75829,R,ugm-3
01-01-2021,18:00,0.30004,R,ugm-3,2.30032,R,ugm-3,2.76037,R,ugm-3,55.89025,R,ugm-3
01-01-2021,19:00,0.41255,R,ugm-3,4.21216,R,ugm-3,4.84473,R,ugm-3,52.11706,R,ugm-3
01-01-2021,20:00,0.18752,R,ugm-3,3.76852,R,ugm-3,4.05606,R,ugm-3,51.17377,R,ugm-3
01-01-2021,21:00,0.30004,R,ugm-3,5.51136,R,ugm-3,5.97141,R,ugm-3,42.49545,R,ugm-3
01-01-2021,22:00,0.26253,R,ugm-3,7.20256,R,ugm-3,7.60510,R,ugm-3,39.61840,R,ugm-3
01-01-2021,23:00,0.41255,R,ugm-3,8.32455,R,ugm-3,8.95712,R,ugm-3,34.99625,R,ugm-3
01-01-2021,24:00,0.48756,R,ugm-3,6.46318,R,ugm-3,7.21076,R,ugm-3,41.08051,R,ugm-3
02-01-2021,01:00,0.45058,R,ugm-3,4.72395,R,ugm-3,5.41482,R,ugm-3,43.33405,R,ugm-3
02-01-2021,02:00,0.75096,R,ugm-3,2.53363,R,ugm-3,3.68509,R,ugm-3,57.79969,R,ugm-3
02-01-2021,03:00,0.45058,R,ugm-3,2.52418,R,ugm-3,3.21505,R,ugm-3,52.92540,R,ugm-3
02-01-2021,04:00,0.45058,R,ugm-3,2.46777,R,ugm-3,3.15865,R,ugm-3,56.32168,R,ugm-3
02-01-2021,05:00,0.48812,R,ugm-3,4.66637,R,ugm-3,5.41482,R,ugm-3,51.55745,R,ugm-3
02-01-2021,06:00,0.48812,R,ugm-3,4.66637,R,ugm-3,5.41482,R,ugm-3,47.78380,R,ugm-3
02-01-2021,07:00,0.33793,R,ugm-3,3.54296,R,ugm-3,4.06111,R,ugm-3,47.31210,R,ugm-3
02-01-2021,08:00,0.33793,R,ugm-3,5.85554,R,ugm-3,6.37369,R,ugm-3,46.13283,R,ugm-3
02-01-2021,09:00,0.45058,R,ugm-3,5.45720,R,ugm-3,6.14808,R,ugm-3,49.62346,R,ugm-3
02-01-2021,10:00,0.97625,R,ugm-3,5.89208,R,ugm-3,7.38897,R,ugm-3,46.08566,R,ugm-3
02-01-2021,11:00,0.97625,R,ugm-3,4.65118,R,ugm-3,6.14808,R,ugm-3,53.49145,R,ugm-3
02-01-2021,12:00,0.82606,R,ugm-3,3.47137,R,ugm-3,4.73797,R,ugm-3,57.21792,R,ugm-3
02-01-2021,13:00,1.27663,R,ugm-3,4.92386,R,ugm-3,6.88133,R,ugm-3,54.38769,R,ugm-3
02-01-2021,14:00,1.05134,R,ugm-3,4.53604,R,ugm-3,6.14808,R,ugm-3,55.84997,R,ugm-3
02-01-2021,15:00,0.78851,R,ugm-3,4.37500,R,ugm-3,5.58403,R,ugm-3,55.18959,R,ugm-3
02-01-2021,16:00,0.63832,R,ugm-3,5.56417,R,ugm-3,6.54291,R,ugm-3,54.67071,R,ugm-3
02-01-2021,17:00,0.48812,R,ugm-3,5.23042,R,ugm-3,5.97886,R,ugm-3,55.18959,R,ugm-3
02-01-2021,18:00,0.30038,R,ugm-3,3.93896,R,ugm-3,4.39954,R,ugm-3,55.75563,R,ugm-3
02-01-2021,19:00,0.48812,R,ugm-3,3.70750,R,ugm-3,4.45594,R,ugm-3,54.81222,R,ugm-3
02-01-2021,20:00,0.22529,R,ugm-3,3.54646,R,ugm-3,3.89190,R,ugm-3,54.85939,R,ugm-3
02-01-2021,21:00,0.30038,R,ugm-3,2.52885,R,ugm-3,2.98943,R,ugm-3,56.74622,R,ugm-3
02-01-2021,22:00,0.30038,R,ugm-3,2.69806,R,ugm-3,3.15865,R,ugm-3,56.74622,R,ugm-3
02-01-2021,23:00,0.26284,R,ugm-3,2.58642,R,ugm-3,2.98943,R,ugm-3,59.62362,R,ugm-3
02-01-2021,24:00,0.22529,R,ugm-3,3.65927,R,ugm-3,4.00471,R,ugm-3,57.64246,R,ugm-3
03-01-2021,01:00,0.35085,R,ugm-3,2.85051,R,ugm-3,3.38848,R,ugm-3,59.44228,R,ugm-3
03-01-2021,02:00,0.70171,R,ugm-3,2.31255,R,ugm-3,3.38848,R,ugm-3,62.20996,R,ugm-3
03-01-2021,03:00,0.52628,R,ugm-3,2.46858,R,ugm-3,3.27553,R,ugm-3,61.42369,R,ugm-3
03-01-2021,04:00,0.67664,R,ugm-3,2.97219,R,ugm-3,4.00970,R,ugm-3,60.99910,R,ugm-3
03-01-2021,05:00,0.41351,R,ugm-3,3.14977,R,ugm-3,3.78380,R,ugm-3,60.05557,R,ugm-3
03-01-2021,06:00,0.67664,R,ugm-3,3.08514,R,ugm-3,4.12265,R,ugm-3,59.06487,R,ugm-3
03-01-2021,07:00,0.48869,R,ugm-3,3.03449,R,ugm-3,3.78380,R,ugm-3,57.22499,R,ugm-3
03-01-2021,08:00,0.41351,R,ugm-3,3.82746,R,ugm-3,4.46150,R,ugm-3,54.96052,R,ugm-3
03-01-2021,09:00,0.37591,R,ugm-3,3.15093,R,ugm-3,3.72733,R,ugm-3,52.27146,R,ugm-3
03-01-2021,10:00,0.82701,R,ugm-3,6.86428,R,ugm-3,8.13235,R,ugm-3,45.00630,R,ugm-3
03-01-2021,11:00,0.86460,R,ugm-3,6.91959,R,ugm-3,8.24530,R,ugm-3,40.24148,R,ugm-3
03-01-2021,12:00,1.16533,R,ugm-3,7.41855,R,ugm-3,9.20536,R,ugm-3,36.56172,R,ugm-3
03-01-2021,13:00,1.09015,R,ugm-3,5.78311,R,ugm-3,7.45465,R,ugm-3,36.84478,R,ugm-3
03-01-2021,14:00,1.12774,R,ugm-3,6.62907,R,ugm-3,8.35825,R,ugm-3,38.44878,R,ugm-3
03-01-2021,15:00,1.24052,R,ugm-3,7.52917,R,ugm-3,9.43126,R,ugm-3,39.39230,R,ugm-3
03-01-2021,16:00,0.90219,R,ugm-3,11.60582,R,ugm-3,12.98917,R,ugm-3,35.47666,R,ugm-3
03-01-2021,17:00,0.86460,R,ugm-3,11.32461,R,ugm-3,12.65032,R,ugm-3,37.59960,R,ugm-3
03-01-2021,18:00,0.90219,R,ugm-3,14.37308,R,ugm-3,15.75642,R,ugm-3,35.80690,R,ugm-3
03-01-2021,19:00,0.71424,R,ugm-3,11.21632,R,ugm-3,12.31147,R,ugm-3,38.16572,R,ugm-3
03-01-2021,20:00,0.75183,R,ugm-3,13.36119,R,ugm-3,14.51398,R,ugm-3,36.18431,R,ugm-3
03-01-2021,21:00,0.67664,R,ugm-3,12.62935,R,ugm-3,13.66686,R,ugm-3,37.12784,R,ugm-3
03-01-2021,22:00,0.37591,R,ugm-3,13.54226,R,ugm-3,14.11866,R,ugm-3,32.78761,R,ugm-3
03-01-2021,23:00,0.41351,R,ugm-3,9.87025,R,ugm-3,10.50428,R,ugm-3,37.36372,R,ugm-3
03-01-2021,24:00,0.63905,R,ugm-3,7.49133,R,ugm-3,8.47119,R,ugm-3,43.02489,R,ugm-3
04-01-2021,01:00,0.40144,R,ugm-3,4.51121,R,ugm-3,5.12674,R,ugm-3,45.60949,R,ugm-3
04-01-2021,02:00,0.75269,R,ugm-3,4.34959,R,ugm-3,5.50370,R,ugm-3,45.60949,R,ugm-3
04-01-2021,03:00,0.67743,R,ugm-3,5.57705,R,ugm-3,6.61575,R,ugm-3,45.24776,R,ugm-3
04-01-2021,04:00,0.41398,R,ugm-3,4.90664,R,ugm-3,5.54140,R,ugm-3,45.05903,R,ugm-3
04-01-2021,05:00,0.45162,R,ugm-3,5.07511,R,ugm-3,5.76758,R,ugm-3,47.04069,R,ugm-3
04-01-2021,06:00,0.37635,R,ugm-3,4.79471,R,ugm-3,5.37177,R,ugm-3,46.85196,R,ugm-3
04-01-2021,07:00,0.60216,R,ugm-3,6.14482,R,ugm-3,7.06811,R,ugm-3,47.04069,R,ugm-3
04-01-2021,08:00,1.01614,R,ugm-3,8.67657,R,ugm-3,10.23463,R,ugm-3,45.15340,R,ugm-3
04-01-2021,09:00,0.86560,R,ugm-3,7.88959,R,ugm-3,9.21682,R,ugm-3,48.07870,R,ugm-3
04-01-2021,10:00,1.27958,R,ugm-3,11.32605,R,ugm-3,13.28805,R,ugm-3,42.79429,R,ugm-3
04-01-2021,11:00,1.05377,R,ugm-3,9.74976,R,ugm-3,11.36553,R,ugm-3,44.49285,R,ugm-3
04-01-2021,12:00,1.01614,R,ugm-3,6.07550,R,ugm-3,7.63356,R,ugm-3,47.55969,R,ugm-3
04-01-2021,13:00,0.97850,R,ugm-3,8.11228,R,ugm-3,9.61263,R,ugm-3,45.62522,R,ugm-3
04-01-2021,14:00,0.97850,R,ugm-3,6.86829,R,ugm-3,8.36865,R,ugm-3,51.61736,R,ugm-3
04-01-2021,15:00,0.86560,R,ugm-3,7.26759,R,ugm-3,8.59483,R,ugm-3,48.31461,R,ugm-3
04-01-2021,16:00,0.71506,R,ugm-3,5.85861,R,ugm-3,6.95502,R,ugm-3,51.57018,R,ugm-3
04-01-2021,17:00,0.52689,R,ugm-3,6.42987,R,ugm-3,7.23775,R,ugm-3,50.53217,R,ugm-3
04-01-2021,18:00,0.86560,R,ugm-3,7.26759,R,ugm-3,8.59483,R,ugm-3,49.35262,R,ugm-3
04-01-2021,19:00,0.60216,R,ugm-3,5.63592,R,ugm-3,6.55921,R,ugm-3,51.19272,R,ugm-3
04-01-2021,20:00,0.60216,R,ugm-3,6.37100,R,ugm-3,7.29429,R,ugm-3,43.83230,R,ugm-3
04-01-2021,21:00,0.52689,R,ugm-3,4.79006,R,ugm-3,5.59795,R,ugm-3,50.06035,R,ugm-3
04-01-2021,22:00,0.60216,R,ugm-3,4.05266,R,ugm-3,4.97595,R,ugm-3,50.86245,R,ugm-3
04-01-2021,23:00,0.60216,R,ugm-3,4.22229,R,ugm-3,5.14559,R,ugm-3,47.93715,R,ugm-3
04-01-2021,24:00,0.63979,R,ugm-3,5.06931,R,ugm-3,6.05031,R,ugm-3,47.84278,R,ugm-3
05-01-2021,01:00,0.30143,R,ugm-3,4.82190,R,ugm-3,5.28408,R,ugm-3,48.82391,R,ugm-3
05-01-2021,02:00,0.75356,R,ugm-3,6.39324,R,ugm-3,7.54869,R,ugm-3,44.10510,R,ugm-3
05-01-2021,03:00,0.56517,R,ugm-3,4.96478,R,ugm-3,5.83136,R,ugm-3,45.15897,R,ugm-3
05-01-2021,04:00,0.45214,R,ugm-3,4.34548,R,ugm-3,5.03875,R,ugm-3,45.96117,R,ugm-3
05-01-2021,05:00,0.60285,R,ugm-3,6.37900,R,ugm-3,7.30336,R,ugm-3,44.21521,R,ugm-3
05-01-2021,06:00,0.33910,R,ugm-3,4.29234,R,ugm-3,4.81229,R,ugm-3,48.50932,R,ugm-3
05-01-2021,07:00,0.71588,R,ugm-3,3.48815,R,ugm-3,4.58583,R,ugm-3,49.50027,R,ugm-3
05-01-2021,08:00,0.82892,R,ugm-3,6.59852,R,ugm-3,7.86951,R,ugm-3,48.83964,R,ugm-3
05-01-2021,09:00,1.05499,R,ugm-3,9.42233,R,ugm-3,11.03996,R,ugm-3,43.46020,R,ugm-3
05-01-2021,10:00,1.46945,R,ugm-3,11.16467,R,ugm-3,13.41779,R,ugm-3,42.75238,R,ugm-3
05-01-2021,11:00,1.31874,R,ugm-3,10.77300,R,ugm-3,12.79503,R,ugm-3,40.77048,R,ugm-3
05-01-2021,12:00,1.54480,R,ugm-3,9.40729,R,ugm-3,11.77596,R,ugm-3,43.08270,R,ugm-3
05-01-2021,13:00,1.62016,R,ugm-3,9.00867,R,ugm-3,11.49288,R,ugm-3,50.49122,R,ugm-3
05-01-2021,14:00,1.46945,R,ugm-3,10.88160,R,ugm-3,13.13472,R,ugm-3,44.68709,R,ugm-3
05-01-2021,15:00,2.07230,R,ugm-3,13.24092,R,ugm-3,16.41840,R,ugm-3,39.73234,R,ugm-3
05-01-2021,16:00,1.16802,R,ugm-3,11.79670,R,ugm-3,13.58764,R,ugm-3,44.49834,R,ugm-3
05-01-2021,17:00,1.09267,R,ugm-3,13.78054,R,ugm-3,15.45594,R,ugm-3,42.51644,R,ugm-3
05-01-2021,18:00,1.35641,R,ugm-3,16.09367,R,ugm-3,18.17347,R,ugm-3,39.40203,R,ugm-3
05-01-2021,19:00,1.01731,R,ugm-3,18.65176,R,ugm-3,20.21162,R,ugm-3,34.35291,R,ugm-3
05-01-2021,20:00,0.75356,R,ugm-3,15.20634,R,ugm-3,16.36178,R,ugm-3,38.55264,R,ugm-3
05-01-2021,21:00,0.67821,R,ugm-3,15.54834,R,ugm-3,16.58825,R,ugm-3,37.98639,R,ugm-3
05-01-2021,22:00,0.82892,R,ugm-3,11.75050,R,ugm-3,13.02149,R,ugm-3,41.61987,R,ugm-3
05-01-2021,23:00,0.56517,R,ugm-3,11.98506,R,ugm-3,12.85164,R,ugm-3,40.72329,R,ugm-3
05-01-2021,24:00,0.75356,R,ugm-3,19.33924,R,ugm-3,20.49469,R,ugm-3,33.12602,R,ugm-3
06-01-2021,01:00,0.45266,R,ugm-3,13.36392,R,ugm-3,14.05799,R,ugm-3,35.99320,R,ugm-3
06-01-2021,02:00,0.95561,R,ugm-3,9.94742,R,ugm-3,11.41267,R,ugm-3,37.12585,R,ugm-3
06-01-2021,03:00,0.49038,R,ugm-3,3.83962,R,ugm-3,4.59152,R,ugm-3,46.20281,R,ugm-3
06-01-2021,04:00,0.60355,R,ugm-3,3.83616,R,ugm-3,4.76158,R,ugm-3,46.76914,R,ugm-3
06-01-2021,05:00,0.45266,R,ugm-3,3.55734,R,ugm-3,4.25141,R,ugm-3,46.62755,R,ugm-3
06-01-2021,06:00,0.45266,R,ugm-3,6.73173,R,ugm-3,7.42579,R,ugm-3,36.05612,R,ugm-3
06-01-2021,07:00,2.45190,R,ugm-3,16.42049,R,ugm-3,20.18002,R,ugm-3,23.88010,R,ugm-3
06-01-2021,08:00,2.03696,R,ugm-3,17.34014,R,ugm-3,20.46344,R,ugm-3,23.36097,R,ugm-3
06-01-2021,09:00,1.47114,R,ugm-3,15.20340,R,ugm-3,17.45912,R,ugm-3,24.54082,R,ugm-3
06-01-2021,10:00,1.99924,R,ugm-3,13.20326,R,ugm-3,16.26872,R,ugm-3,26.23980,R,ugm-3
06-01-2021,11:00,1.32025,R,ugm-3,6.36509,R,ugm-3,8.38945,R,ugm-3,39.54847,R,ugm-3
06-01-2021,12:00,1.13165,R,ugm-3,4.38686,R,ugm-3,6.12203,R,ugm-3,45.44771,R,ugm-3
06-01-2021,13:00,1.39570,R,ugm-3,5.45581,R,ugm-3,7.59585,R,ugm-3,41.86097,R,ugm-3
06-01-2021,14:00,1.65975,R,ugm-3,4.82420,R,ugm-3,7.36911,R,ugm-3,42.61607,R,ugm-3
06-01-2021,15:00,1.24481,R,ugm-3,5.17700,R,ugm-3,7.08568,R,ugm-3,40.68113,R,ugm-3
06-01-2021,16:00,1.16937,R,ugm-3,7.67346,R,ugm-3,9.46647,R,ugm-3,35.91454,R,ugm-3
06-01-2021,17:00,1.05620,R,ugm-3,7.05338,R,ugm-3,8.67287,R,ugm-3,37.37755,R,ugm-3
06-01-2021,18:00,0.94304,R,ugm-3,7.96381,R,ugm-3,9.40978,R,ugm-3,34.97067,R,ugm-3
06-01-2021,19:00,0.60355,R,ugm-3,6.55706,R,ugm-3,7.48248,R,ugm-3,37.37755,R,ugm-3
06-01-2021,20:00,0.49038,R,ugm-3,6.90063,R,ugm-3,7.65253,R,ugm-3,37.51913,R,ugm-3
06-01-2021,21:00,0.52810,R,ugm-3,6.95616,R,ugm-3,7.76591,R,ugm-3,37.47194,R,ugm-3
06-01-2021,22:00,0.49038,R,ugm-3,6.27709,R,ugm-3,7.02899,R,ugm-3,39.40689,R,ugm-3
06-01-2021,23:00,0.37722,R,ugm-3,4.18319,R,ugm-3,4.76158,R,ugm-3,44.26786,R,ugm-3
06-01-2021,24:00,0.56582,R,ugm-3,3.10040,R,ugm-3,3.96798,R,ugm-3,44.31505,R,ugm-3
07-01-2021,01:00,0.55389,R,ugm-3,3.46416,R,ugm-3,4.31343,R,ugm-3,43.92719,R,ugm-3
07-01-2021,02:00,0.95671,R,ugm-3,2.24110,R,ugm-3,3.70804,R,ugm-3,45.94104,R,ugm-3
07-01-2021,03:00,0.64200,R,ugm-3,2.53446,R,ugm-3,3.51886,R,ugm-3,46.58611,R,ugm-3
07-01-2021,04:00,0.75530,R,ugm-3,2.87155,R,ugm-3,4.02966,R,ugm-3,45.07572,R,ugm-3
07-01-2021,05:00,0.60424,R,ugm-3,3.21668,R,ugm-3,4.14317,R,ugm-3,44.46212,R,ugm-3
07-01-2021,06:00,0.64200,R,ugm-3,3.78309,R,ugm-3,4.76748,R,ugm-3,45.83091,R,ugm-3
07-01-2021,07:00,0.67977,R,ugm-3,3.61167,R,ugm-3,4.65397,R,ugm-3,47.10530,R,ugm-3
07-01-2021,08:00,1.05742,R,ugm-3,4.67853,R,ugm-3,6.29988,R,ugm-3,48.56850,R,ugm-3
07-01-2021,09:00,0.98189,R,ugm-3,4.11328,R,ugm-3,5.61882,R,ugm-3,46.72771,R,ugm-3
07-01-2021,10:00,0.90636,R,ugm-3,4.91015,R,ugm-3,6.29988,R,ugm-3,43.75413,R,ugm-3
07-01-2021,11:00,1.39730,R,ugm-3,8.41406,R,ugm-3,10.55656,R,ugm-3,43.99012,R,ugm-3
07-01-2021,12:00,1.01965,R,ugm-3,6.72289,R,ugm-3,8.28633,R,ugm-3,57.20604,R,ugm-3
07-01-2021,13:00,1.01965,R,ugm-3,6.32560,R,ugm-3,7.88904,R,ugm-3,58.52763,R,ugm-3
07-01-2021,14:00,1.01965,R,ugm-3,5.81480,R,ugm-3,7.37824,R,ugm-3,63.48360,R,ugm-3
07-01-2021,15:00,1.09518,R,ugm-3,8.65028,R,ugm-3,10.32954,R,ugm-3,52.58047,R,ugm-3
07-01-2021,16:00,0.98189,R,ugm-3,15.80495,R,ugm-3,17.31049,R,ugm-3,43.28213,R,ugm-3
07-01-2021,17:00,1.17071,R,ugm-3,25.73145,R,ugm-3,27.52652,R,ugm-3,33.84219,R,ugm-3
07-01-2021,18:00,0.75530,R,ugm-3,16.03887,R,ugm-3,17.19698,R,ugm-3,45.64211,R,ugm-3
07-01-2021,19:00,0.45318,R,ugm-3,9.86170,R,ugm-3,10.55656,R,ugm-3,57.11164,R,ugm-3
07-01-2021,20:00,0.49094,R,ugm-3,9.63353,R,ugm-3,10.38629,R,ugm-3,60.32122,R,ugm-3
07-01-2021,21:00,0.64200,R,ugm-3,12.69374,R,ugm-3,13.67813,R,ugm-3,53.90206,R,ugm-3
07-01-2021,22:00,0.37765,R,ugm-3,6.96946,R,ugm-3,7.54851,R,ugm-3,63.81400,R,ugm-3
07-01-2021,23:00,0.49094,R,ugm-3,14.79829,R,ugm-3,15.55107,R,ugm-3,50.55088,R,ugm-3
07-01-2021,24:00,0.49094,R,ugm-3,4.75253,R,ugm-3,5.50530,R,ugm-3,66.50438,R,ugm-3
08-01-2021,01:00,0.55452,R,ugm-3,3.39275,R,ugm-3,4.24301,R,ugm-3,67.66126,R,ugm-3
08-01-2021,02:00,0.65534,R,ugm-3,2.40471,R,ugm-3,3.40956,R,ugm-3,67.72420,R,ugm-3
08-01-2021,03:00,0.52932,R,ugm-3,1.23413,R,ugm-3,2.04574,R,ugm-3,70.33624,R,ugm-3
08-01-2021,04:00,0.41589,R,ugm-3,2.14678,R,ugm-3,2.78447,R,ugm-3,68.30640,R,ugm-3
08-01-2021,05:00,0.52932,R,ugm-3,3.79130,R,ugm-3,4.60290,R,ugm-3,69.76977,R,ugm-3
08-01-2021,06:00,0.34028,R,ugm-3,3.56972,R,ugm-3,4.09147,R,ugm-3,71.51637,R,ugm-3
08-01-2021,07:00,0.83178,R,ugm-3,4.00943,R,ugm-3,5.28482,R,ugm-3,70.80829,R,ugm-3
08-01-2021,08:00,0.52932,R,ugm-3,4.53004,R,ugm-3,5.34164,R,ugm-3,72.03563,R,ugm-3
08-01-2021,09:00,0.90740,R,ugm-3,5.82557,R,ugm-3,7.21690,R,ugm-3,69.58095,R,ugm-3
08-01-2021,10:00,0.86959,R,ugm-3,6.67911,R,ugm-3,8.01246,R,ugm-3,69.34492,R,ugm-3
08-01-2021,11:00,0.79398,R,ugm-3,4.80614,R,ugm-3,6.02356,R,ugm-3,70.85550,R,ugm-3
08-01-2021,12:00,1.05863,R,ugm-3,4.68447,R,ugm-3,6.30768,R,ugm-3,70.47785,R,ugm-3
08-01-2021,13:00,1.28548,R,ugm-3,5.01855,R,ugm-3,6.98960,R,ugm-3,70.52506,R,ugm-3
08-01-2021,14:00,1.47452,R,ugm-3,6.88808,R,ugm-3,9.14898,R,ugm-3,69.81697,R,ugm-3
08-01-2021,15:00,1.92822,R,ugm-3,10.45436,R,ugm-3,13.41093,R,ugm-3,63.77467,R,ugm-3
08-01-2021,16:00,0.94521,R,ugm-3,11.73433,R,ugm-3,13.18363,R,ugm-3,62.87776,R,ugm-3
08-01-2021,17:00,0.90740,R,ugm-3,14.80408,R,ugm-3,16.19540,R,ugm-3,55.13606,R,ugm-3
08-01-2021,18:00,0.83178,R,ugm-3,16.68163,R,ugm-3,17.95701,R,ugm-3,48.76331,R,ugm-3
08-01-2021,19:00,0.83178,R,ugm-3,15.03367,R,ugm-3,16.30906,R,ugm-3,50.55712,R,ugm-3
08-01-2021,20:00,0.64274,R,ugm-3,17.42610,R,ugm-3,18.41162,R,ugm-3,46.54465,R,ugm-3
08-01-2021,21:00,0.52932,R,ugm-3,15.04284,R,ugm-3,15.85445,R,ugm-3,50.08506,R,ugm-3
08-01-2021,22:00,0.52932,R,ugm-3,15.15649,R,ugm-3,15.96810,R,ugm-3,50.32109,R,ugm-3
08-01-2021,23:00,0.68055,R,ugm-3,16.79986,R,ugm-3,17.84336,R,ugm-3,45.31731,R,ugm-3
08-01-2021,24:00,0.60493,R,ugm-3,10.94908,R,ugm-3,11.87663,R,ugm-3,54.42797,R,ugm-3
09-01-2021,01:00,0.45422,R,ugm-3,10.91038,R,ugm-3,11.60684,R,ugm-3,52.56197,R,ugm-3
09-01-2021,02:00,0.75703,R,ugm-3,7.63919,R,ugm-3,8.79995,R,ugm-3,56.08708,R,ugm-3
09-01-2021,03:00,0.41637,R,ugm-3,5.96154,R,ugm-3,6.59997,R,ugm-3,58.73092,R,ugm-3
09-01-2021,04:00,0.52992,R,ugm-3,5.04778,R,ugm-3,5.86031,R,ugm-3,61.37476,R,ugm-3
09-01-2021,05:00,0.37852,R,ugm-3,3.51615,R,ugm-3,4.09653,R,ugm-3,64.34907,R,ugm-3
09-01-2021,06:00,0.30281,R,ugm-3,3.00636,R,ugm-3,3.47067,R,ugm-3,66.00147,R,ugm-3
09-01-2021,07:00,0.30281,R,ugm-3,3.51843,R,ugm-3,3.98274,R,ugm-3,65.10445,R,ugm-3
09-01-2021,08:00,0.45422,R,ugm-3,4.93627,R,ugm-3,5.63273,R,ugm-3,63.82974,R,ugm-3
09-01-2021,09:00,0.71918,R,ugm-3,4.41621,R,ugm-3,5.51894,R,ugm-3,65.38772,R,ugm-3
09-01-2021,10:00,0.75703,R,ugm-3,4.58575,R,ugm-3,5.74652,R,ugm-3,65.48214,R,ugm-3
09-01-2021,11:00,0.98415,R,ugm-3,4.18063,R,ugm-3,5.68962,R,ugm-3,66.52079,R,ugm-3
09-01-2021,12:00,0.71918,R,ugm-3,3.16449,R,ugm-3,4.26722,R,ugm-3,68.97578,R,ugm-3
09-01-2021,13:00,0.52992,R,ugm-3,2.54434,R,ugm-3,3.35688,R,ugm-3,69.44790,R,ugm-3
09-01-2021,14:00,0.56778,R,ugm-3,2.37251,R,ugm-3,3.24309,R,ugm-3,70.43934,R,ugm-3
09-01-2021,15:00,0.45422,R,ugm-3,1.97766,R,ugm-3,2.67412,R,ugm-3,70.86424,R,ugm-3
09-01-2021,16:00,0.41637,R,ugm-3,2.03570,R,ugm-3,2.67412,R,ugm-3,69.96722,R,ugm-3
09-01-2021,17:00,0.41637,R,ugm-3,1.92191,R,ugm-3,2.56033,R,ugm-3,67.27618,R,ugm-3
09-01-2021,18:00,0.52992,R,ugm-3,2.37365,R,ugm-3,3.18619,R,ugm-3,64.30186,R,ugm-3
09-01-2021,19:00,0.37852,R,ugm-3,2.20753,R,ugm-3,2.78792,R,ugm-3,63.26321,R,ugm-3
09-01-2021,20:00,0.37852,R,ugm-3,1.86615,R,ugm-3,2.44654,R,ugm-3,61.70523,R,ugm-3
09-01-2021,21:00,0.45422,R,ugm-3,2.09146,R,ugm-3,2.78792,R,ugm-3,58.58929,R,ugm-3
09-01-2021,22:00,0.37852,R,ugm-3,1.86615,R,ugm-3,2.44654,R,ugm-3,60.99706,R,ugm-3
09-01-2021,23:00,0.26496,R,ugm-3,1.12993,R,ugm-3,1.53620,R,ugm-3,65.43493,R,ugm-3
09-01-2021,24:00,0.11356,R,ugm-3,1.13450,R,ugm-3,1.30862,R,ugm-3,65.10445,R,ugm-3
10-01-2021,01:00,0.50527,R,ugm-3,0.97224,R,ugm-3,1.74697,R,ugm-3,64.40423,R,ugm-3
10-01-2021,02:00,0.70738,R,ugm-3,0.51044,R,ugm-3,1.59506,R,ugm-3,63.96353,R,ugm-3
10-01-2021,03:00,0.60632,R,ugm-3,0.66538,R,ugm-3,1.59506,R,ugm-3,60.91015,R,ugm-3
10-01-2021,04:00,0.22737,R,ugm-3,0.90463,R,ugm-3,1.25326,R,ugm-3,59.63529,R,ugm-3
10-01-2021,05:00,0.45474,R,ugm-3,0.72690,R,ugm-3,1.42416,R,ugm-3,60.24911,R,ugm-3
10-01-2021,06:00,0.41685,R,ugm-3,0.89894,R,ugm-3,1.53810,R,ugm-3,63.64875,R,ugm-3
10-01-2021,07:00,0.22737,R,ugm-3,0.84767,R,ugm-3,1.19630,R,ugm-3,67.75664,R,ugm-3
10-01-2021,08:00,0.22737,R,ugm-3,0.84767,R,ugm-3,1.19630,R,ugm-3,68.70099,R,ugm-3
10-01-2021,09:00,0.37895,R,ugm-3,0.78615,R,ugm-3,1.36720,R,ugm-3,67.52056,R,ugm-3
10-01-2021,10:00,0.26527,R,ugm-3,2.89732,R,ugm-3,3.30406,R,ugm-3,60.91015,R,ugm-3
10-01-2021,11:00,0.37895,R,ugm-3,1.64064,R,ugm-3,2.22169,R,ugm-3,66.29291,R,ugm-3
10-01-2021,12:00,0.37895,R,ugm-3,2.60908,R,ugm-3,3.19013,R,ugm-3,57.08556,R,ugm-3
10-01-2021,13:00,0.41685,R,ugm-3,1.98131,R,ugm-3,2.62046,R,ugm-3,54.91357,R,ugm-3
10-01-2021,14:00,0.45474,R,ugm-3,1.58140,R,ugm-3,2.27866,R,ugm-3,55.95235,R,ugm-3
10-01-2021,15:00,0.53053,R,ugm-3,1.97789,R,ugm-3,2.79136,R,ugm-3,53.96923,R,ugm-3
10-01-2021,16:00,0.26527,R,ugm-3,1.81496,R,ugm-3,2.22169,R,ugm-3,57.32165,R,ugm-3
10-01-2021,17:00,0.49264,R,ugm-3,1.23846,R,ugm-3,1.99383,R,ugm-3,69.97585,R,ugm-3
10-01-2021,18:00,0.41685,R,ugm-3,1.18377,R,ugm-3,1.82293,R,ugm-3,69.88142,R,ugm-3
10-01-2021,19:00,0.34106,R,ugm-3,1.07212,R,ugm-3,1.59506,R,ugm-3,71.48680,R,ugm-3
10-01-2021,20:00,0.18948,R,ugm-3,1.76027,R,ugm-3,2.05080,R,ugm-3,65.30135,R,ugm-3
10-01-2021,21:00,0.45474,R,ugm-3,1.41050,R,ugm-3,2.10776,R,ugm-3,64.82918,R,ugm-3
10-01-2021,22:00,0.26527,R,ugm-3,1.41619,R,ugm-3,1.82293,R,ugm-3,63.83762,R,ugm-3
10-01-2021,23:00,0.18948,R,ugm-3,1.13364,R,ugm-3,1.42416,R,ugm-3,68.27603,R,ugm-3
10-01-2021,24:00,0.11369,R,ugm-3,1.02198,R,ugm-3,1.19630,R,ugm-3,72.24227,R,ugm-3
11-01-2021,01:00,0.25292,R,ugm-3,0.98107,R,ugm-3,1.36888,R,ugm-3,72.97527,R,ugm-3
11-01-2021,02:00,0.65760,R,ugm-3,0.13243,R,ugm-3,1.14074,R,ugm-3,71.96785,R,ugm-3
11-01-2021,03:00,0.53114,R,ugm-3,0.21226,R,ugm-3,1.02666,R,ugm-3,71.30672,R,ugm-3
11-01-2021,04:00,0.30351,R,ugm-3,0.50425,R,ugm-3,0.96963,R,ugm-3,71.11783,R,ugm-3
11-01-2021,05:00,0.41732,R,ugm-3,0.44381,R,ugm-3,1.08370,R,ugm-3,74.84845,R,ugm-3
11-01-2021,06:00,0.34145,R,ugm-3,0.67423,R,ugm-3,1.19777,R,ugm-3,79.09852,R,ugm-3
11-01-2021,07:00,0.26557,R,ugm-3,1.01872,R,ugm-3,1.42592,R,ugm-3,78.95685,R,ugm-3
11-01-2021,08:00,0.30351,R,ugm-3,1.13166,R,ugm-3,1.59703,R,ugm-3,75.32068,R,ugm-3
11-01-2021,09:00,0.30351,R,ugm-3,1.30277,R,ugm-3,1.76814,R,ugm-3,71.63729,R,ugm-3
11-01-2021,10:00,0.37939,R,ugm-3,1.81383,R,ugm-3,2.39555,R,ugm-3,65.87608,R,ugm-3
11-01-2021,11:00,0.37939,R,ugm-3,1.24346,R,ugm-3,1.82518,R,ugm-3,67.38722,R,ugm-3
11-01-2021,12:00,0.34145,R,ugm-3,1.41571,R,ugm-3,1.93925,R,ugm-3,65.78164,R,ugm-3
11-01-2021,13:00,0.37939,R,ugm-3,1.58568,R,ugm-3,2.16740,R,ugm-3,67.00943,R,ugm-3
11-01-2021,14:00,0.41732,R,ugm-3,1.64159,R,ugm-3,2.28147,R,ugm-3,69.18169,R,ugm-3
11-01-2021,15:00,0.37939,R,ugm-3,1.92790,R,ugm-3,2.50962,R,ugm-3,72.95953,R,ugm-3
11-01-2021,16:00,0.30351,R,ugm-3,1.93017,R,ugm-3,2.39555,R,ugm-3,76.45403,R,ugm-3
11-01-2021,17:00,0.34145,R,ugm-3,2.89866,R,ugm-3,3.42221,R,ugm-3,74.42344,R,ugm-3
11-01-2021,18:00,0.41732,R,ugm-3,2.78232,R,ugm-3,3.42221,R,ugm-3,71.63729,R,ugm-3
11-01-2021,19:00,0.34145,R,ugm-3,3.29792,R,ugm-3,3.82147,R,ugm-3,69.93726,R,ugm-3
11-01-2021,20:00,0.37939,R,ugm-3,6.49085,R,ugm-3,7.07256,R,ugm-3,66.39553,R,ugm-3
11-01-2021,21:00,0.49320,R,ugm-3,5.46078,R,ugm-3,6.21701,R,ugm-3,64.69551,R,ugm-3
11-01-2021,22:00,0.68289,R,ugm-3,7.50843,R,ugm-3,8.55552,R,ugm-3,61.95657,R,ugm-3
11-01-2021,23:00,0.30351,R,ugm-3,6.32201,R,ugm-3,6.78738,R,ugm-3,61.90935,R,ugm-3
11-01-2021,24:00,0.26557,R,ugm-3,5.92388,R,ugm-3,6.33109,R,ugm-3,59.87876,R,ugm-3
12-01-2021,01:00,0.40514,R,ugm-3,3.49050,R,ugm-3,4.11171,R,ugm-3,60.76775,R,ugm-3
12-01-2021,02:00,0.86092,R,ugm-3,3.32465,R,ugm-3,4.64471,R,ugm-3,58.05996,R,ugm-3
12-01-2021,03:00,0.41780,R,ugm-3,3.24266,R,ugm-3,3.88328,R,ugm-3,64.08951,R,ugm-3
12-01-2021,04:00,0.98753,R,ugm-3,3.96809,R,ugm-3,5.48228,R,ugm-3,66.21481,R,ugm-3
12-01-2021,05:00,0.87358,R,ugm-3,4.71387,R,ugm-3,6.05335,R,ugm-3,64.32565,R,ugm-3
12-01-2021,06:00,0.30386,R,ugm-3,2.56077,R,ugm-3,3.02668,R,ugm-3,66.45095,R,ugm-3
12-01-2021,07:00,0.45578,R,ugm-3,3.24153,R,ugm-3,3.94039,R,ugm-3,66.97047,R,ugm-3
12-01-2021,08:00,0.72166,R,ugm-3,5.97475,R,ugm-3,7.08128,R,ugm-3,66.68709,R,ugm-3
12-01-2021,09:00,0.94955,R,ugm-3,6.42482,R,ugm-3,7.88078,R,ugm-3,64.18397,R,ugm-3
12-01-2021,10:00,0.91157,R,ugm-3,8.82445,R,ugm-3,10.22217,R,ugm-3,61.30301,R,ugm-3
12-01-2021,11:00,1.32937,R,ugm-3,7.27012,R,ugm-3,9.30845,R,ugm-3,63.00325,R,ugm-3
12-01-2021,12:00,1.74717,R,ugm-3,8.17139,R,ugm-3,10.85034,R,ugm-3,61.82253,R,ugm-3
12-01-2021,13:00,1.70918,R,ugm-3,6.57353,R,ugm-3,9.19424,R,ugm-3,62.05867,R,ugm-3
12-01-2021,14:00,1.44331,R,ugm-3,7.43805,R,ugm-3,9.65110,R,ugm-3,60.31120,R,ugm-3
12-01-2021,15:00,1.55726,R,ugm-3,10.29001,R,ugm-3,12.67777,R,ugm-3,53.93531,R,ugm-3
12-01-2021,16:00,1.17744,R,ugm-3,11.72899,R,ugm-3,13.53437,R,ugm-3,52.23508,R,ugm-3
12-01-2021,17:00,0.87358,R,ugm-3,15.84975,R,ugm-3,17.18923,R,ugm-3,48.07894,R,ugm-3
12-01-2021,18:00,0.91157,R,ugm-3,13.96409,R,ugm-3,15.36180,R,ugm-3,48.12617,R,ugm-3
12-01-2021,19:00,0.64569,R,ugm-3,11.68772,R,ugm-3,12.67777,R,ugm-3,50.53484,R,ugm-3
12-01-2021,20:00,0.60771,R,ugm-3,7.69136,R,ugm-3,8.62317,R,ugm-3,53.51025,R,ugm-3
12-01-2021,21:00,0.45578,R,ugm-3,7.12481,R,ugm-3,7.82367,R,ugm-3,50.39315,R,ugm-3
12-01-2021,22:00,0.64569,R,ugm-3,11.05954,R,ugm-3,12.04959,R,ugm-3,39.34161,R,ugm-3
12-01-2021,23:00,0.56973,R,ugm-3,7.86381,R,ugm-3,8.73738,R,ugm-3,41.79751,R,ugm-3